Home > Time Zones > World Clock > Weather > Peru > Lima > Past weeks

Flag for Peru Weather past 2 weeks in Lima, Lima, Peru

Now
70 °F

Overcast.


Feels Like: 70 °F
Forecast: 65 / 76 °F
Wind: 8 mph from South

Location: Lima-Callao / Aerop. Internacional Jorgechavez

Current Time: May 29, 2015 at 2:06:22 AM

Latest Report: May 29, 2015 at 1:00 AM


Visibility: N/A

Pressure: 29.98 "Hg

Humidity: 83%

Dew point: 64 °F

Location of LimaLocation

Historic Weather in Lima — Graph

°F

Lima temperature yesterday

Maximum temperature yesterday: 73 °F (at 12:00 PM)
Minimum temperature yesterday: 68 °F (at 2:00 AM)
Average temperature yesterday: 70 °F

Past Weeks' High & Low Weather Summary

 TemperatureHumidityPressure
High77 °F (May 14, 11:00 AM)94% (May 14, 1:00 AM)30.04 "Hg (May 14, 1:00 AM)
Low64 °F (May 24, 7:00 AM)61% (May 14, 11:00 AM)29.83 "Hg (May 15, 4:00 PM)
Average71 °F79%29.94 "Hg
* Reported May 14 1:00 AM — May 29 1:00 AM, Lima, Weather by CustomWeather, © 2015

Note: Actual official high and low records may vary slightly from our data, if they occured in-between our weather recording intervals... More about our weather records

Advertising

Lima weather history for previous 24 hours

 ConditionsComfort  
Time TempWeatherWind HumidityBarometerVisibility
1:00 AM
Fri, May 29
70 °FOvercast.8 mph83%29.98 "HgN/A
12:00 AM70 °FOvercast.7 mph83%29.98 "HgN/A
11:00 PM
Thu, May 28
70 °FOvercast.8 mph83%29.98 "HgN/A
10:00 PM70 °FOvercast.9 mph83%29.98 "HgN/A
9:00 PM70 °FOvercast.7 mph78%29.98 "HgN/A
8:00 PM70 °FPassing clouds.8 mph78%29.95 "HgN/A
7:00 PM70 °FPassing clouds.10 mph78%29.92 "HgN/A
6:00 PM70 °FOvercast.8 mph83%29.92 "HgN/A
5:00 PM72 °FMore clouds than sun.7 mph78%29.92 "HgN/A
4:00 PM72 °FMostly cloudy.6 mph78%29.89 "HgN/A
3:00 PM72 °FMore clouds than sun.5 mph78%29.89 "HgN/A
2:00 PM72 °FOvercast.5 mph78%29.92 "HgN/A
1:00 PM73 °FOvercast.6 mph74%29.95 "HgN/A
12:00 PM73 °FMore clouds than sun.6 mph74%29.95 "HgN/A
11:00 AM72 °FMore clouds than sun.5 mph78%29.98 "HgN/A
10:00 AM72 °FOvercast.3 mph78%30.01 "HgN/A
9:00 AM70 °FMore clouds than sun.2 mph83%30.01 "HgN/A
8:00 AM68 °FMore clouds than sun.5 mph88%29.98 "HgN/A
7:00 AM68 °FOvercast.3 mph88%29.95 "HgN/A
6:00 AM68 °FLow clouds.3 mph88%29.95 "HgN/A
5:00 AM68 °FLow clouds.5 mph88%29.92 "HgN/A
4:00 AM68 °FLow clouds.7 mph88%29.92 "HgN/A
3:00 AM68 °FLow clouds.6 mph88%29.92 "HgN/A
2:00 AM68 °FOvercast.6 mph88%29.95 "HgN/A
Weather by CustomWeather, © 2015

See weather overviewHow to use our weather pages